Theta_e
351 351 348 349 349 348 347 347 347 348 347 347 348 348 348 348 347 347 347 347 346 347 346 345 344 344 345 344 345 345 345 345 345 345 346 348 348 351 358 360 360 358 357 358 358 358 358 358 358 358 358 358 356 355 356 356 356 356 356 356 356 356 355 355 355 355 355 355 355 355 354 354 354 354 354 353 353 353 353 353 353 353 354 353 353
352 350 348 348 346 346 348 348 348 348 347 346 347 346 347 347 347 346 347 347 346 346 348 345 343 343 343 344 344 345 346 345 345 345 345 346 347 349 356 359 361 360 360 360 359 358 358 358 358 357 358 358 358 357 356 356 356 357 357 356 357 356 356 356 356 356 355 355 355 355 354 354 354 354 354 354 354 354 354 354 354 354 354 354 352
352 350 347 345 344 344 345 347 347 348 347 347 347 348 347 347 347 346 346 346 346 346 346 345 343 344 345 345 345 345 345 346 346 346 346 346 346 348 350 357 360 360 358 357 359 359 359 358 356 355 355 356 357 358 358 358 356 357 357 357 357 357 356 356 356 356 356 355 355 355 355 355 355 355 355 355 354 354 354 354 354 354 354 354 354
352 350 347 345 344 343 344 345 346 348 349 349 348 349 349 349 348 347 347 346 347 346 346 345 346 346 344 345 346 345 345 345 346 346 346 346 347 348 348 350 357 360 360 357 359 359 358 359 358 356 355 355 356 357 358 356 356 357 357 357 357 357 356 356 356 356 356 356 355 355 355 355 355 355 355 355 355 355 354 354 354 354 354 354 355
352 350 352 346 345 344 345 347 348 349 350 351 351 351 348 346 346 347 344 344 344 345 347 346 344 345 343 344 344 344 346 345 345 346 346 347 347 348 348 350 351 356 360 361 360 360 355 357 357 358 358 356 356 356 356 357 357 357 357 357 358 357 356 356 357 357 356 356 356 355 356 356 355 355 355 355 355 355 355 354 354 355 355 355 355
354 351 350 347 346 346 346 348 350 352 352 351 352 351 349 346 346 344 348 346 344 345 345 344 344 344 344 344 344 344 344 344 345 345 346 346 348 348 349 350 350 352 355 361 362 361 361 359 354 354 357 358 358 357 357 356 357 358 358 357 357 357 357 356 357 357 356 356 356 356 356 356 356 356 355 355 355 355 355 355 355 355 355 355 355
353 351 350 349 348 348 349 351 352 351 350 348 348 348 349 348 347 344 344 346 348 347 345 343 343 343 344 345 344 343 344 344 345 345 345 346 347 348 350 350 351 352 355 355 359 361 361 360 360 358 356 359 359 358 358 357 356 356 358 358 357 358 357 357 357 357 357 357 357 357 356 356 356 356 356 356 355 355 355 355 355 355 354 355 355
350 348 346 346 346 347 348 349 350 348 346 345 346 346 344 345 346 345 346 348 347 344 343 342 343 343 344 344 345 347 345 344 344 345 346 345 345 346 347 347 349 351 357 355 355 358 361 361 357 357 357 359 359 359 359 357 356 357 355 357 358 357 357 357 357 357 356 357 357 357 357 357 357 357 356 356 356 355 355 356 355 355 355 355 356
349 348 347 346 345 345 345 347 348 348 347 346 345 346 345 347 347 349 347 345 345 344 344 343 343 343 344 344 345 347 345 345 345 345 345 345 345 345 345 346 347 354 353 354 354 354 357 360 362 357 357 357 361 361 361 359 359 359 358 357 358 359 358 358 358 357 357 357 357 357 357 357 357 357 357 357 357 356 356 356 356 355 355 355 355
347 346 346 346 344 344 346 347 348 349 348 347 347 346 344 343 345 343 344 340 343 345 346 346 345 344 343 344 345 345 346 346 347 351 345 344 343 343 344 345 346 346 349 351 353 354 354 356 359 358 358 355 355 357 358 359 359 358 358 357 357 357 359 358 358 358 358 357 357 357 357 357 357 357 357 357 357 356 356 356 356 356 356 356 356
346 346 344 344 345 344 346 347 349 348 346 346 345 346 347 341 341 344 342 340 343 343 344 344 344 342 342 343 343 344 345 346 348 346 344 344 343 345 344 344 344 345 346 348 350 352 353 353 354 355 357 356 351 352 356 358 358 359 358 358 358 358 357 358 359 358 358 358 358 357 357 357 357 358 358 358 357 357 357 356 356 357 357 357 357
344 343 342 343 342 343 344 348 348 345 344 342 341 340 341 340 341 342 342 338 340 343 338 338 339 339 341 342 342 342 342 344 344 344 346 343 345 345 344 345 344 345 346 346 347 348 350 351 353 353 354 356 358 357 356 356 358 358 358 357 357 356 358 357 358 359 359 359 358 358 357 357 357 358 358 358 358 357 357 357 357 357 357 357 357
347 345 344 348 347 345 350 350 345 344 342 341 339 339 339 341 340 342 343 340 335 335 337 338 338 338 337 335 336 338 342 342 340 342 344 344 345 344 345 346 346 345 346 344 345 346 347 348 349 351 352 353 354 356 356 355 355 355 355 357 354 355 355 356 356 357 359 360 359 359 358 357 357 358 358 358 358 357 357 357 357 357 357 357 357
349 346 347 347 349 352 352 349 343 341 342 342 342 346 342 340 339 339 341 340 335 335 339 336 330 334 333 333 333 334 336 336 338 339 342 343 344 343 344 346 347 347 347 344 344 346 346 347 348 349 350 351 352 352 353 355 353 351 353 354 355 358 357 356 355 353 354 358 360 359 358 357 357 358 358 358 357 357 356 356 356 357 357 358 358
348 350 348 350 351 348 346 341 339 343 338 334 335 339 338 338 336 335 333 334 337 338 338 335 331 332 334 332 328 326 329 329 331 335 336 337 340 342 345 343 343 344 345 344 344 344 346 346 346 347 348 349 350 351 352 356 355 356 355 355 356 357 357 357 356 354 353 351 353 359 359 358 358 358 358 358 357 357 357 356 356 356 356 357 358
349 348 351 347 346 346 341 339 336 337 337 337 333 336 338 338 338 338 335 334 338 336 341 336 333 331 324 325 329 328 322 320 325 331 335 337 337 336 339 339 342 341 342 339 342 342 343 345 345 345 346 347 348 349 351 352 355 359 359 356 355 353 355 358 356 355 354 354 352 354 358 358 358 358 358 358 358 357 357 356 356 356 356 357 357
346 346 346 340 339 339 338 338 335 336 338 335 334 334 336 336 337 338 339 339 337 339 336 337 332 334 332 329 325 322 323 323 327 326 332 332 334 336 339 336 335 338 337 338 339 340 340 341 342 343 344 345 346 348 349 350 352 355 355 358 357 355 354 355 356 357 357 356 354 352 356 358 358 358 359 359 358 358 357 356 356 356 356 356 357
339 339 340 339 337 338 336 337 336 337 340 335 335 335 334 336 337 337 336 337 338 338 330 332 336 337 337 337 332 325 325 329 327 319 328 332 333 334 333 333 333 335 335 336 337 338 342 340 340 341 342 342 343 344 345 346 350 350 352 352 356 355 355 353 354 356 357 357 355 353 354 356 356 359 359 359 359 359 358 356 356 356 356 356 357
337 335 335 340 336 337 337 336 336 335 341 334 334 334 334 334 338 335 334 340 336 330 329 326 330 332 337 335 335 336 335 330 325 327 323 324 328 329 330 333 333 332 333 333 336 337 337 340 341 341 341 342 343 343 343 344 348 350 354 356 355 354 354 354 354 355 355 357 355 354 353 355 357 356 358 358 359 359 359 359 356 356 356 356 357
335 334 334 336 338 336 335 335 336 338 344 335 334 334 334 334 343 340 338 339 333 329 328 330 331 332 337 334 336 338 336 336 334 328 326 322 323 327 329 330 330 331 332 332 333 334 335 336 338 339 340 341 342 342 343 344 344 345 348 351 354 354 354 354 354 355 355 355 357 356 353 354 358 358 357 358 359 359 359 359 359 356 356 357 357
334 334 336 336 343 338 335 335 334 338 347 337 335 336 334 333 333 335 333 335 334 334 331 330 333 333 331 332 334 334 334 334 333 333 326 319 319 320 323 328 328 327 329 331 332 333 335 335 337 340 341 342 342 342 343 344 344 345 349 350 352 353 353 353 354 355 354 355 356 355 355 355 355 358 359 358 356 359 359 359 360 359 357 357 358
333 334 334 336 340 339 337 335 334 337 344 334 335 335 334 334 334 332 329 333 335 336 333 330 331 332 332 333 331 331 331 331 329 330 330 328 322 323 325 323 321 324 328 328 329 331 332 334 334 335 336 337 339 341 342 343 343 345 346 350 351 352 352 352 352 353 354 354 355 356 356 355 355 356 356 357 358 357 359 360 360 360 360 359 358
334 333 335 335 335 339 336 334 334 342 342 334 335 335 335 334 334 335 334 330 330 332 336 334 331 330 330 330 329 327 327 325 321 326 328 323 325 324 323 322 322 322 324 327 330 329 330 332 332 333 334 336 338 340 341 341 346 347 349 350 351 351 350 351 351 352 351 353 355 356 355 355 355 354 352 355 357 357 357 357 360 360 361 360 360
330 331 334 335 337 334 339 336 339 334 333 332 333 334 335 334 332 330 329 330 329 332 327 327 330 330 328 327 327 328 329 327 325 328 329 327 325 323 321 322 322 322 326 326 327 326 328 328 329 332 333 334 336 338 340 342 343 347 347 349 349 349 349 350 351 351 350 350 350 353 352 353 356 356 352 353 355 357 357 358 357 360 359 360 359
329 330 332 333 335 332 331 331 332 334 336 333 334 335 334 333 331 331 330 329 331 331 328 329 328 328 328 327 326 324 328 328 325 327 330 332 329 323 322 324 321 321 319 321 321 325 326 326 330 329 330 331 333 335 337 337 336 338 339 341 344 346 347 348 347 347 348 349 349 352 353 353 352 352 352 351 351 354 356 357 357 356 356 359 359
329 331 334 332 335 333 336 331 330 331 335 333 334 334 334 333 332 332 330 332 329 329 330 329 327 329 327 325 326 328 328 327 327 328 329 329 327 325 322 321 321 319 317 317 318 319 320 323 326 327 327 328 331 332 330 330 330 335 336 335 336 340 343 344 345 345 345 346 347 349 351 353 353 353 351 351 352 350 354 357 357 358 359 358 357
330 334 333 332 333 332 333 332 332 332 334 336 338 335 335 335 334 332 333 330 329 330 329 327 330 328 326 328 328 326 327 327 328 329 328 329 328 325 324 319 317 315 314 314 316 317 318 321 325 324 324 329 326 325 326 326 331 334 335 330 330 335 338 341 343 344 344 344 345 345 347 349 351 352 351 351 350 351 350 353 355 357 357 357 356
330 331 333 334 333 332 333 335 333 332 332 334 334 335 334 333 332 331 331 335 330 329 331 327 329 328 328 328 326 329 329 328 329 329 328 329 328 325 327 324 317 311 311 311 310 311 316 318 319 322 323 323 324 324 329 328 325 332 333 328 328 330 334 336 338 340 342 343 344 343 344 346 346 348 350 351 350 349 349 350 353 355 355 356 355
331 334 333 333 332 332 333 334 333 332 331 333 334 333 333 334 334 329 330 330 332 331 330 329 330 330 328 329 329 329 328 327 327 329 329 327 326 325 326 323 321 316 311 308 310 310 313 318 316 317 321 322 323 324 324 324 327 330 328 327 327 328 331 333 335 337 340 342 342 342 342 343 343 344 346 348 349 350 350 348 348 350 353 352 354
333 336 335 333 332 340 333 332 332 331 333 332 332 332 332 332 333 332 332 330 330 331 332 331 331 330 332 330 329 328 330 326 328 328 328 327 324 324 323 323 325 319 316 312 312 314 313 316 318 317 320 322 323 323 324 324 329 329 327 326 326 326 330 332 334 336 337 338 339 339 340 341 341 342 342 342 344 346 349 350 349 350 350 351 353
336 334 334 332 332 332 334 332 331 332 331 332 332 331 331 331 332 332 332 331 330 330 330 331 332 330 328 328 326 327 327 327 327 326 328 326 323 322 322 322 325 323 319 317 311 315 316 314 317 320 321 322 323 323 323 324 327 328 326 325 325 329 332 331 332 333 335 336 337 337 337 336 337 339 339 339 341 343 345 347 348 348 349 349 351
332 332 333 332 332 331 331 332 331 331 330 331 331 331 330 331 331 332 332 330 330 330 330 329 332 332 330 328 328 327 327 325 326 326 327 326 323 321 320 319 320 321 319 316 313 312 316 317 318 320 321 321 322 321 322 323 325 330 324 324 325 331 327 327 332 333 334 334 335 335 334 334 335 337 338 339 340 342 343 344 344 345 346 348 348
332 331 331 331 331 331 330 331 330 330 329 329 330 329 328 329 329 330 329 328 329 329 330 329 328 329 329 328 327 327 325 324 325 326 324 321 322 321 321 317 316 317 317 315 314 314 316 319 320 320 322 322 321 322 321 321 322 322 326 324 325 324 325 327 329 333 334 334 334 334 334 334 335 335 336 338 339 341 342 343 342 342 344 344 344
330 331 331 331 331 330 329 328 329 330 329 329 329 329 330 329 329 331 331 329 328 329 327 327 326 327 327 325 325 325 325 325 325 324 324 321 320 319 319 319 317 317 318 316 314 314 313 318 319 321 321 322 319 322 320 320 320 323 322 323 324 325 326 327 329 331 335 335 333 333 333 333 334 334 335 336 337 338 339 340 339 339 340 340 340
330 330 330 329 329 329 328 329 329 329 329 329 329 329 329 329 329 329 331 329 329 328 327 327 327 325 323 325 326 326 327 324 324 324 324 322 321 319 319 319 318 318 318 318 315 313 314 316 320 320 320 320 319 320 321 321 322 322 321 322 323 325 327 328 329 331 334 334 333 333 333 333 334 334 334 335 335 335 335 335 335 336 337 337 337
329 331 330 329 329 328 328 329 329 329 329 329 329 330 330 330 329 329 328 328 329 328 328 328 327 325 325 323 324 325 325 324 324 323 322 322 321 320 320 319 319 318 318 318 317 316 316 316 320 320 320 319 320 321 321 322 320 321 321 322 324 324 325 327 328 330 333 333 332 332 333 333 333 332 332 332 332 331 331 330 331 333 332 332 333
330 329 330 330 329 329 329 329 329 328 329 329 329 329 330 330 330 330 329 328 328 328 328 328 331 326 325 324 325 324 323 323 323 322 323 321 321 321 320 320 319 319 320 319 318 317 317 317 319 322 321 320 320 320 320 318 319 320 321 321 322 323 324 327 329 331 333 333 333 332 332 332 332 332 332 331 331 330 329 329 329 329 330 330 331
330 329 329 329 331 329 329 329 329 328 329 329 329 329 330 331 330 330 329 329 328 327 327 326 325 325 325 324 325 324 324 323 323 323 322 322 321 320 319 320 319 319 319 318 319 318 318 319 320 320 320 318 318 318 319 319 318 318 319 321 322 324 324 325 326 329 331 333 334 336 335 335 333 332 332 332 331 330 329 328 327 326 326 326 325
329 328 327 326 329 329 328 327 328 328 328 328 329 329 329 329 329 329 329 328 327 327 326 325 325 324 324 324 325 324 324 324 323 323 323 321 321 320 321 320 320 318 318 318 318 318 318 320 321 321 319 319 317 315 318 319 319 319 318 318 319 321 322 323 323 326 328 329 332 334 335 336 336 336 331 330 330 330 330 328 327 325 324 323 322
326 326 325 324 324 327 326 326 328 328 327 327 327 327 327 328 329 329 329 329 328 326 326 325 325 325 325 325 325 325 325 325 324 323 322 321 320 319 320 320 320 319 318 319 318 318 320 321 321 319 318 316 316 317 318 318 316 317 319 318 317 318 320 322 323 323 325 327 327 330 333 335 335 334 331 331 331 331 330 330 330 329 326 324 322
328 326 325 325 324 325 324 325 325 326 326 326 326 326 325 326 328 329 329 329 328 327 326 325 325 325 325 325 325 325 327 330 325 322 322 320 321 320 320 319 320 319 318 318 318 319 321 321 320 320 318 315 315 314 314 314 314 315 318 319 318 319 320 320 322 324 326 325 326 328 331 334 336 338 339 338 338 336 333 332 333 334 330 324 323
327 327 326 326 324 325 325 324 324 325 326 327 331 329 330 328 327 329 329 328 327 326 326 326 325 325 324 323 326 331 329 327 325 322 319 317 316 320 323 321 320 319 318 318 318 320 321 320 319 318 315 314 314 314 314 315 317 318 318 318 316 318 319 319 320 322 326 326 325 325 329 334 335 336 338 339 341 340 339 336 335 335 333 328 326
327 328 328 326 325 324 324 324 324 325 326 328 329 326 327 330 331 328 328 328 327 326 326 325 325 326 324 322 321 326 329 329 330 328 323 319 320 318 316 317 318 321 319 318 319 321 322 320 320 318 316 314 314 315 315 316 318 318 317 318 318 318 316 315 313 319 325 325 325 325 325 331 335 334 336 338 341 341 340 339 336 334 330 329 327
327 328 328 327 326 326 326 325 324 325 325 330 324 324 326 327 330 331 328 327 327 326 326 326 326 325 324 323 323 324 325 326 326 326 326 325 321 319 318 316 315 315 317 321 321 321 321 320 319 318 316 314 314 315 316 317 317 318 318 318 317 317 316 315 315 315 321 325 322 321 321 326 329 331 334 337 339 341 343 338 334 334 330 329 328
327 327 327 326 326 326 326 325 325 326 326 327 323 323 323 324 326 329 329 328 327 327 326 326 325 324 323 323 323 324 324 329 330 327 324 325 321 319 317 316 315 315 316 316 316 320 321 321 320 319 318 316 315 316 319 319 320 318 318 317 316 316 316 315 316 317 320 324 322 320 320 323 327 328 331 335 338 340 342 337 335 334 331 329 328
327 326 326 326 326 326 327 326 326 326 325 327 323 322 321 322 323 326 327 327 327 327 326 325 325 324 323 322 322 323 323 324 324 323 322 320 320 320 321 321 322 323 318 316 315 315 317 320 321 318 319 318 317 318 321 321 319 318 317 316 316 316 316 315 317 318 320 323 320 320 318 321 324 326 327 333 338 339 340 337 333 331 331 329 328
326 326 326 326 327 328 328 328 327 326 327 324 321 321 319 319 320 324 324 326 325 324 324 324 324 324 323 323 322 322 322 323 324 324 323 321 319 319 319 319 320 320 320 321 321 321 321 320 319 319 319 319 319 320 321 322 321 320 319 318 317 317 318 319 319 320 320 323 323 321 315 320 323 323 325 329 335 337 339 334 332 331 330 328 328
327 328 327 327 327 328 329 328 327 326 327 323 320 320 318 318 320 323 322 322 322 323 323 323 323 323 322 322 322 322 322 322 321 318 320 321 318 319 318 319 318 317 317 316 317 319 321 321 320 320 320 321 318 321 322 322 321 320 319 320 319 317 316 315 314 316 317 321 324 322 319 319 323 322 323 328 333 335 338 339 333 329 328 327 328
327 327 328 328 328 328 328 328 326 326 326 324 319 316 315 317 318 321 320 321 321 321 321 322 322 322 322 322 321 322 322 321 320 318 316 314 319 318 317 315 314 313 315 318 317 315 315 313 312 313 313 313 314 313 313 313 316 317 317 315 314 315 313 312 313 314 315 318 322 324 321 319 322 322 323 326 330 334 337 338 340 333 328 327 326
328 328 328 328 328 328 328 327 327 326 325 323 318 315 313 316 319 320 320 319 319 320 321 321 321 320 321 330 330 324 322 321 318 314 315 317 316 313 310 310 312 314 316 319 320 320 316 315 314 315 315 315 315 315 315 314 313 314 317 313 314 315 313 313 311 313 315 317 319 324 320 320 322 323 322 325 329 332 335 337 339 339 332 326 325
328 327 330 328 327 326 327 327 330 329 325 323 319 316 314 314 318 320 320 319 319 319 320 321 318 318 316 322 326 324 317 316 312 311 312 312 313 310 309 310 313 314 317 318 318 318 317 317 317 318 319 318 321 321 322 317 316 317 319 318 318 316 313 313 313 313 312 314 319 324 320 320 321 323 323 323 322 329 335 337 338 339 340 337 335
Wind_Speed
4 4 3 4 4 4 4 4 4 4 3 4 3 4 4 4 4 4 4 4 5 6 3 2 2 2 2 3 3 4 4 5 4 4 4 4 4 6 11 12 12 14 14 13 13 15 17 17 17 18 18 18 18 17 16 16 16 16 16 16 16 16 15 15 15 14 14 14 13 13 13 13 12 12 12 12 11 11 10 10 10 9 9 8 8
4 4 4 5 3 3 3 4 4 4 3 4 3 3 5 4 4 5 4 4 4 5 4 3 2 2 2 3 4 4 4 4 5 4 4 4 5 5 11 13 14 15 14 13 12 13 16 17 18 19 18 19 18 18 17 17 17 17 17 16 17 17 16 16 15 15 15 15 14 14 13 13 13 13 12 12 12 11 11 11 10 10 10 9 9
4 4 3 3 3 3 4 4 4 5 3 5 4 4 4 5 5 4 4 4 4 4 4 4 2 2 2 3 4 4 4 4 5 5 5 5 4 4 6 12 14 13 13 12 13 14 16 17 14 15 16 17 18 19 19 19 18 18 17 17 17 17 17 17 16 16 16 16 15 14 14 14 14 13 13 13 13 12 12 12 11 11 11 10 9
5 4 4 3 3 3 4 4 5 4 4 4 5 4 3 3 5 4 4 3 4 4 3 4 4 3 2 3 3 4 5 4 5 5 5 5 5 5 5 5 11 13 12 15 15 14 16 17 16 16 15 15 18 18 19 18 18 18 19 18 18 17 18 18 17 17 17 16 16 15 15 14 14 14 14 14 13 13 13 12 12 12 11 11 10
5 4 3 4 3 4 5 5 5 4 4 5 5 4 3 3 5 4 5 2 3 5 4 4 5 5 2 3 3 4 4 4 5 4 5 5 5 5 5 5 5 8 12 15 15 16 16 16 17 16 16 17 18 18 19 19 19 19 19 19 19 18 19 19 18 18 18 17 17 16 16 15 15 15 15 14 14 14 13 13 13 12 12 12 11
5 4 4 3 3 4 4 5 5 5 5 4 5 3 3 3 4 1 4 3 4 4 3 5 5 5 5 3 3 4 4 4 5 5 5 5 5 5 5 5 5 4 5 11 14 16 17 17 14 15 18 18 18 17 17 19 20 21 20 20 20 20 20 20 19 19 18 18 18 17 17 16 16 16 15 15 15 14 14 13 13 13 13 13 12
4 4 4 4 4 4 4 5 4 4 4 2 4 3 3 3 2 2 3 3 4 4 4 4 5 6 6 5 4 2 3 4 4 5 5 6 5 5 5 5 5 5 4 5 9 14 16 17 17 18 19 20 18 17 18 18 19 20 22 21 20 20 20 20 19 19 19 19 19 18 18 17 17 17 17 16 16 15 14 14 14 13 13 13 13
4 4 4 4 4 4 3 2 3 2 2 3 1 3 2 2 2 2 3 3 3 4 3 4 4 5 5 5 5 4 4 4 4 4 5 5 5 5 4 4 4 4 5 5 5 6 13 16 19 20 21 19 19 19 20 18 20 21 22 22 21 21 20 20 20 20 20 20 19 19 18 18 18 17 17 17 16 15 15 15 14 14 14 13 13
5 4 4 4 4 5 4 4 2 1 2 1 1 2 1 2 3 3 3 3 3 4 3 4 4 4 4 4 5 4 4 4 4 4 2 4 5 5 5 5 4 6 5 5 5 6 12 15 16 16 20 20 17 18 19 21 22 22 22 22 23 22 21 20 20 21 21 21 20 20 19 19 19 18 18 18 17 16 15 15 15 15 14 14 13
3 3 4 4 2 2 3 3 2 3 4 4 4 2 1 2 3 3 3 2 2 4 4 4 4 4 4 4 5 4 5 5 5 4 3 4 4 4 5 5 4 4 4 5 5 6 6 10 15 17 16 19 20 18 20 20 22 22 22 22 22 23 22 21 21 21 21 21 21 20 20 19 19 18 18 18 18 17 16 15 15 15 14 14 14
4 4 3 1 1 2 3 3 3 3 3 4 4 4 4 3 3 5 1 2 3 3 4 4 4 4 5 5 4 5 5 5 5 4 3 3 3 4 4 5 5 5 5 5 5 5 6 5 5 5 9 16 13 20 22 24 22 22 22 22 22 23 22 23 22 21 22 21 21 20 20 19 18 18 19 18 18 17 16 16 16 16 16 15 14
4 3 3 2 2 2 2 3 2 2 2 2 3 3 4 4 4 3 5 2 2 4 3 3 2 4 6 5 4 5 5 4 5 4 3 2 3 3 4 4 4 5 5 2 2 3 5 6 6 6 6 9 17 21 21 22 22 23 23 22 21 22 23 24 23 22 22 22 22 21 20 20 20 19 19 19 17 17 16 16 16 16 16 16 15
3 3 3 3 3 2 2 3 2 1 1 2 3 3 3 3 1 1 2 3 2 1 2 1 2 3 3 3 4 4 4 3 3 4 4 4 2 3 4 4 4 5 3 2 3 4 5 6 6 6 6 6 8 15 19 19 21 20 20 19 18 21 23 24 24 24 24 23 22 21 21 21 20 19 19 18 17 17 17 16 16 16 16 17 16
3 3 3 3 4 3 3 3 2 2 1 1 1 2 2 1 1 1 1 1 2 2 3 1 2 2 5 6 5 5 3 2 1 2 4 3 2 2 2 3 4 4 3 3 4 5 6 6 6 6 6 6 7 6 8 9 10 19 20 22 23 24 24 23 24 24 23 24 23 22 21 21 20 20 20 19 18 18 17 17 16 16 16 16 16
3 3 3 4 4 3 4 3 1 0 0 2 2 2 1 1 1 1 1 1 1 2 2 1 1 1 2 2 3 6 5 4 1 4 4 3 3 2 2 2 2 1 3 3 4 4 4 5 5 6 6 6 6 6 6 7 10 16 19 20 22 23 24 25 23 22 22 23 24 23 22 21 21 21 20 20 19 18 18 18 17 17 17 16 16
3 3 3 3 3 4 2 2 2 2 1 0 2 1 1 1 1 1 2 1 2 2 2 1 0 1 2 1 2 2 4 2 4 5 2 2 3 3 2 3 3 2 1 3 5 5 4 4 5 5 5 6 6 7 7 7 12 16 19 20 19 19 23 25 25 28 24 25 25 24 22 21 21 21 21 21 20 20 19 18 18 18 17 17 17
3 3 3 3 2 3 3 3 2 2 2 2 2 2 1 1 2 2 2 1 1 1 2 1 1 0 0 1 2 2 2 3 5 5 2 3 2 3 4 4 4 4 4 5 5 4 4 4 5 5 5 6 6 6 6 7 8 8 11 16 18 18 20 22 27 27 25 25 26 26 21 22 22 22 22 22 21 20 20 19 19 18 18 18 18
3 3 3 3 3 3 3 3 3 3 3 2 1 0 1 0 2 3 2 2 2 1 2 2 1 1 2 1 2 2 2 2 2 4 2 2 0 2 3 4 3 4 5 5 5 5 4 4 4 5 5 6 6 6 6 6 7 7 7 9 18 18 18 23 25 28 27 25 25 25 26 24 22 22 23 23 23 21 20 21 20 19 19 19 18
4 3 3 3 3 4 3 3 3 3 2 2 1 1 1 1 0 2 3 3 2 2 3 2 3 1 1 1 1 1 1 1 2 3 6 4 1 2 3 3 4 4 4 3 4 5 5 4 4 4 4 5 5 5 5 6 9 11 14 16 18 18 20 23 22 24 25 27 27 26 27 27 23 22 23 23 23 23 21 21 21 20 20 20 19
4 3 2 3 3 3 3 3 2 2 2 3 2 1 1 1 1 2 1 3 4 3 2 1 1 1 1 1 2 2 2 4 3 1 3 6 6 1 0 4 6 4 3 3 4 5 5 6 6 5 5 4 4 5 6 6 6 7 8 15 18 19 19 19 21 22 24 26 27 25 26 29 25 23 23 24 24 24 22 21 21 22 21 19 19
2 3 3 3 3 4 3 3 3 2 2 2 2 1 1 1 1 2 2 3 3 2 2 3 3 3 0 1 0 0 1 1 1 1 1 1 5 4 7 6 4 2 1 3 4 4 5 5 5 6 6 6 4 4 5 6 6 6 8 14 16 18 19 19 20 23 24 24 26 25 25 26 27 25 24 24 24 24 24 23 22 21 22 21 22
2 1 1 2 3 3 4 4 3 3 2 2 1 0 0 0 1 2 2 2 2 3 3 2 3 2 2 2 2 1 2 1 1 1 3 4 4 6 7 6 6 6 4 3 5 6 5 5 5 5 5 6 6 5 5 5 6 6 8 15 17 18 18 18 19 22 23 24 24 24 27 27 27 26 26 26 26 24 24 24 23 23 22 23 24
1 1 1 3 3 3 4 3 3 2 1 2 1 1 1 2 1 1 2 2 2 2 3 2 2 2 2 3 3 4 3 3 3 3 2 2 3 5 5 3 4 8 4 4 6 6 5 5 5 5 5 6 6 6 5 6 7 9 15 17 16 16 17 17 18 20 20 20 22 24 27 27 24 25 23 28 26 27 25 24 25 24 24 23 23
1 2 2 3 3 3 2 2 3 2 2 2 1 2 2 2 2 2 2 2 1 1 2 2 2 2 2 2 3 3 3 3 4 3 4 2 2 4 5 4 4 4 6 7 5 4 5 6 4 4 5 5 6 6 6 6 7 14 13 15 16 17 17 17 18 18 19 20 21 22 23 27 26 24 26 29 29 28 26 25 24 25 26 24 23
1 3 3 3 2 2 2 2 1 1 1 1 2 2 3 3 2 2 2 2 3 3 2 3 3 3 4 2 2 2 4 4 3 3 3 4 4 3 2 2 4 6 3 3 3 5 5 4 4 5 5 5 5 5 6 7 7 13 18 12 17 16 16 17 17 18 18 20 21 22 24 25 23 22 24 23 26 27 25 25 27 26 25 25 24
3 4 5 3 2 3 3 3 2 2 1 2 3 3 2 3 3 3 3 3 2 3 3 3 3 3 2 2 3 4 5 3 4 3 3 3 3 3 3 1 2 5 3 2 2 4 4 3 5 6 5 4 3 4 5 7 8 13 18 14 13 16 16 16 17 17 18 19 20 21 22 22 22 21 22 26 25 22 26 23 26 26 25 24 24
5 5 3 3 3 2 2 3 3 3 3 2 3 3 2 2 3 3 3 3 3 2 3 2 3 3 3 4 4 4 5 4 4 4 3 4 3 3 2 4 4 2 3 2 3 3 6 3 3 6 5 3 4 5 6 6 10 16 17 11 10 16 19 18 17 17 17 18 19 20 21 21 21 21 23 24 24 24 26 25 25 26 25 23 22
4 3 4 4 4 3 3 4 4 3 3 3 3 3 3 3 3 3 4 2 3 3 4 3 4 3 3 3 2 5 4 4 4 4 4 4 4 3 3 2 4 4 3 3 2 4 3 2 3 5 3 4 6 7 9 10 8 15 15 9 9 10 16 19 19 18 18 18 19 19 20 20 21 21 22 23 24 25 24 26 27 25 22 22 22
5 4 4 4 4 4 4 5 4 4 4 4 4 4 4 4 4 4 4 3 3 4 4 3 4 3 3 4 5 5 5 3 3 3 3 3 3 3 4 5 3 3 2 2 3 3 4 1 3 4 2 4 8 8 8 7 10 13 9 9 9 10 13 18 19 19 19 18 18 18 19 19 20 20 21 22 23 24 24 26 26 25 23 22 22
5 5 5 5 5 5 5 5 5 4 5 4 4 4 4 5 5 5 5 3 3 3 3 4 5 4 4 3 3 4 4 3 4 3 4 5 4 4 5 5 4 5 4 3 5 3 5 3 2 4 5 9 8 9 7 9 12 14 9 9 9 10 16 19 20 20 20 19 18 18 18 19 19 20 20 20 21 23 23 23 24 23 23 22 22
5 5 5 5 5 5 5 5 4 5 4 4 4 4 4 5 4 5 5 4 4 4 4 3 4 3 3 4 3 4 4 4 4 4 4 5 5 5 5 4 5 6 5 4 3 4 3 4 4 6 8 10 9 8 8 8 10 12 9 9 10 14 20 16 19 20 19 19 18 18 18 19 19 19 19 20 21 22 23 23 23 23 23 23 22
6 5 6 6 6 6 5 6 5 4 4 4 4 4 3 4 5 5 5 4 4 5 5 3 3 4 4 4 5 5 4 3 4 4 5 5 5 5 5 5 5 5 5 4 6 9 4 5 7 9 9 10 10 11 9 8 8 13 9 10 11 16 11 10 15 18 18 18 19 18 18 19 19 19 19 20 21 21 22 22 22 22 22 23 22
5 5 6 6 6 6 6 5 5 5 4 5 4 3 4 4 4 4 4 3 4 5 4 4 3 3 4 4 5 5 3 4 5 5 5 6 5 5 5 5 5 5 6 6 6 8 6 4 6 7 8 8 10 9 11 9 9 9 9 10 10 10 10 9 10 15 18 18 18 18 18 18 19 19 19 20 20 21 22 22 22 22 22 22 22
5 6 6 6 5 5 5 5 5 5 5 5 5 3 4 4 4 4 4 4 4 5 3 4 4 3 3 4 5 5 3 4 4 5 5 6 5 5 5 6 6 6 6 5 6 4 8 4 6 7 8 6 9 9 9 12 11 10 11 10 9 9 9 9 9 10 16 17 17 18 17 18 18 19 19 20 20 21 21 21 21 21 21 22 22
5 6 6 6 6 5 5 5 5 5 5 6 5 4 5 4 5 4 4 4 5 5 5 5 5 4 3 4 6 5 3 4 5 5 4 5 5 6 7 6 6 7 5 6 4 5 7 8 5 7 8 8 7 11 9 9 10 9 11 10 10 9 9 10 10 9 15 17 18 18 17 17 18 18 19 20 20 20 20 20 20 20 20 20 21
7 6 5 5 4 5 5 5 6 5 5 5 5 5 6 5 5 6 5 5 5 5 5 5 5 4 5 4 6 5 4 5 5 5 4 4 5 6 7 6 6 8 6 5 6 6 4 7 8 6 7 8 9 9 9 8 10 10 8 10 9 9 10 9 10 10 12 17 18 18 18 18 18 18 19 19 19 19 19 20 19 20 19 20 20
6 5 4 4 4 4 6 6 6 6 6 6 6 6 6 5 6 6 5 5 5 5 5 5 5 4 4 5 6 4 4 5 6 5 5 5 6 6 7 7 7 7 6 5 6 5 6 9 9 8 7 7 8 9 9 8 9 9 9 9 9 9 10 9 8 9 14 17 18 18 18 18 18 19 19 19 19 19 19 19 19 19 20 20 21
5 5 5 5 5 6 6 6 6 6 6 6 7 7 7 6 5 5 5 5 5 5 5 5 5 4 5 5 5 5 4 5 7 6 5 6 5 5 6 7 7 6 6 6 5 5 6 7 8 9 8 8 8 8 9 7 9 10 11 9 8 8 8 9 9 8 7 8 8 9 11 12 15 19 19 18 18 19 19 19 19 19 19 20 21
6 5 6 6 5 5 6 5 6 6 6 6 6 6 6 5 5 5 5 5 5 5 5 6 5 5 5 5 5 5 6 6 7 6 6 5 5 6 6 7 6 6 7 7 6 6 6 7 7 7 8 9 7 9 10 8 9 9 10 10 10 9 7 7 10 9 8 9 11 16 15 14 15 12 14 18 19 19 19 19 19 20 19 20 20
6 6 7 6 5 4 5 4 5 5 5 4 5 5 5 5 5 5 6 6 6 6 5 5 5 6 6 6 6 6 6 7 6 6 5 6 5 5 6 4 5 5 7 6 6 6 7 7 7 8 7 9 9 8 7 7 8 8 5 6 11 12 12 9 8 10 10 9 10 10 10 12 12 15 17 17 18 19 20 19 20 19 20 20 20
5 6 6 6 4 4 4 4 5 4 4 5 5 5 5 5 5 6 6 7 7 6 6 6 6 6 5 6 6 6 7 9 11 10 8 7 5 6 6 4 5 6 6 6 6 6 7 8 9 6 7 8 9 8 9 8 8 10 11 9 9 10 11 12 11 8 8 10 9 9 9 8 9 9 7 8 10 14 15 19 15 20 20 19 20
6 7 6 5 5 5 5 5 4 4 5 4 6 10 8 5 5 6 5 6 6 6 6 6 6 6 6 5 6 9 11 11 11 12 12 12 11 8 7 5 6 6 6 6 7 6 7 9 9 8 8 8 9 8 8 9 9 9 10 9 10 11 11 12 11 8 5 6 8 10 9 7 8 9 8 9 8 9 8 9 10 12 16 20 20
8 7 6 6 6 5 6 6 6 6 5 5 9 10 11 11 6 5 6 6 5 6 6 7 7 7 5 5 4 6 7 8 8 10 11 12 11 12 12 11 9 8 6 7 7 7 7 8 9 7 8 9 10 9 8 9 9 10 9 9 10 10 11 12 15 13 3 5 6 9 11 8 8 10 9 9 9 8 8 9 13 17 18 18 19
8 7 7 7 6 5 5 5 5 5 5 8 11 11 11 11 10 6 6 6 6 6 7 7 7 6 6 5 4 4 4 5 5 5 7 10 11 11 11 11 12 12 12 9 8 7 7 8 8 8 8 8 9 9 9 8 9 9 10 9 10 10 11 12 11 13 10 6 9 10 12 9 8 10 11 9 9 8 9 12 16 17 17 18 18
6 7 7 5 5 5 5 5 6 6 5 9 12 12 12 11 11 9 6 7 7 7 7 7 6 6 6 5 5 5 4 8 7 5 5 6 8 10 11 11 10 11 11 13 13 11 8 9 10 11 9 7 8 10 9 9 8 10 11 10 9 10 10 12 12 12 13 8 9 11 13 12 8 9 11 10 9 8 10 13 17 17 18 18 19
7 6 5 6 5 5 6 6 6 5 5 8 12 13 12 12 12 10 7 7 7 7 7 7 6 6 6 5 5 6 5 5 5 5 4 4 5 5 6 5 6 8 8 11 13 14 13 10 11 14 12 6 9 10 12 10 10 11 10 12 12 12 12 13 14 15 15 11 11 10 13 13 8 9 12 11 8 9 10 12 16 17 18 19 19
8 8 8 8 7 6 6 6 6 6 6 9 11 12 13 13 13 9 6 6 6 6 7 6 6 6 6 5 4 6 6 6 6 6 5 5 4 5 6 6 6 6 5 6 7 6 7 7 9 10 11 10 10 12 11 11 10 10 9 12 14 14 14 14 14 14 14 11 11 10 14 11 7 9 11 11 9 9 9 12 16 16 18 19 19
7 6 6 5 6 6 6 6 6 6 6 9 11 12 13 13 12 6 5 5 6 6 7 6 6 6 5 4 5 6 6 6 8 11 8 5 4 6 6 6 6 6 6 7 8 8 9 8 7 9 9 11 12 11 13 13 11 11 10 11 11 11 11 13 14 12 12 9 9 10 11 12 9 9 11 10 9 10 9 9 13 17 18 19 19
7 7 7 7 6 7 7 6 6 7 7 9 10 10 11 13 8 6 4 5 6 6 7 6 5 4 4 4 4 5 5 5 8 9 7 2 5 5 5 5 5 6 9 6 7 11 13 14 15 15 16 17 19 21 21 21 16 13 9 10 13 11 11 14 14 12 13 9 7 10 11 13 10 9 10 10 9 10 9 9 8 13 18 18 19
7 8 7 6 6 6 7 7 7 7 8 8 8 8 10 13 11 7 7 7 7 6 5 5 4 4 4 7 6 4 5 5 5 6 4 4 4 4 3 4 6 7 8 6 6 6 9 12 13 14 17 18 19 20 19 20 19 13 7 11 13 11 12 13 16 14 15 12 11 8 11 12 9 8 10 9 8 9 10 9 9 10 14 16 19
6 3 4 6 6 5 6 7 8 7 6 7 9 10 11 11 10 7 7 6 6 6 6 6 4 4 3 4 6 5 4 4 6 5 4 5 4 4 3 3 7 8 8 6 7 9 9 9 9 7 9 10 9 8 10 15 15 14 10 11 11 11 12 14 15 15 16 13 8 9 11 10 10 10 8 7 10 9 8 9 10 9 8 8 10
Wind_Direction
213 220 212 225 238 247 253 255 254 252 252 267 253 276 280 273 278 277 276 281 289 284 271 237 197 196 209 248 248 253 260 265 260 251 249 250 251 251 248 242 228 233 240 233 235 232 229 228 228 224 216 216 218 219 215 216 217 218 219 219 217 217 215 216 218 220 223 222 221 220 218 218 219 221 224 228 230 232 234 236 238 239 238 235 235
215 220 207 238 245 265 270 266 266 270 258 267 253 251 261 270 269 269 270 270 273 276 284 276 235 214 212 233 244 247 247 253 260 253 245 243 241 245 250 246 240 234 232 233 229 237 234 232 233 232 225 220 216 219 220 221 220 220 221 220 220 220 218 217 216 220 222 225 224 223 223 223 222 223 226 228 231 233 235 237 239 241 241 241 239
218 220 227 246 268 278 272 281 278 272 263 262 261 246 252 248 248 259 268 267 264 273 282 280 268 253 237 231 244 246 245 242 255 258 257 246 241 243 246 247 244 236 241 244 237 229 234 233 234 247 242 233 227 219 220 221 221 222 223 223 222 221 221 220 219 219 221 224 226 225 225 225 226 227 227 229 231 232 235 239 240 242 244 246 245
218 219 209 220 242 254 264 265 262 266 247 256 264 253 264 351 331 331 318 312 294 281 280 285 281 237 212 241 246 242 252 244 246 255 258 254 245 244 243 245 250 241 223 231 235 237 241 232 225 223 235 245 239 232 226 225 227 225 225 226 228 226 223 222 222 220 221 222 224 225 225 227 228 229 229 230 231 232 234 238 242 244 246 247 249
217 211 207 203 218 237 252 254 258 263 256 248 252 265 267 245 253 211 225 270 318 308 312 296 291 289 245 235 234 245 253 261 260 257 255 256 250 247 246 247 237 242 234 223 225 228 234 245 238 230 222 227 237 232 238 228 225 227 227 228 228 229 229 224 223 223 223 222 222 223 224 225 227 229 231 231 231 233 234 236 240 244 247 246 246
202 197 196 200 220 235 247 257 251 248 249 248 246 251 249 250 250 294 304 305 285 272 278 286 288 294 293 268 212 238 230 233 250 257 259 259 249 234 241 248 246 223 236 235 225 227 232 230 232 245 238 229 230 238 236 241 233 226 228 228 229 230 231 230 225 224 224 224 223 223 223 223 225 227 230 232 232 233 234 236 238 241 244 247 247
200 182 180 186 207 229 236 246 249 260 243 237 250 244 243 247 224 246 260 253 251 275 273 279 289 291 291 303 291 241 222 237 238 246 254 259 261 249 229 236 247 248 239 238 238 235 230 232 225 223 233 235 229 229 236 231 241 244 233 228 229 230 230 230 232 229 225 225 225 223 222 223 223 225 227 231 233 234 235 236 239 241 243 245 248
193 177 178 187 200 221 237 265 252 221 235 229 222 251 244 254 229 229 270 269 267 274 268 270 274 278 281 288 287 285 266 248 238 234 242 255 258 259 248 238 247 252 249 246 248 246 239 237 239 240 236 235 230 229 230 230 234 238 240 235 230 229 229 229 229 231 230 226 226 225 224 223 223 224 224 228 231 233 234 236 238 240 241 243 245
189 185 196 212 209 223 208 224 231 255 265 285 277 245 239 276 280 236 216 258 258 266 267 250 263 265 276 277 281 288 284 278 276 261 230 232 250 255 261 248 233 239 240 241 249 249 251 247 242 238 244 243 236 231 231 234 233 233 235 239 236 231 230 230 229 230 231 231 228 227 226 225 224 223 224 225 227 230 232 234 236 238 239 241 242
163 177 198 213 226 268 295 300 312 321 336 331 311 311 261 233 273 244 210 223 261 283 285 280 277 281 281 282 288 287 283 283 276 277 250 239 241 250 250 261 267 255 245 243 242 248 252 254 249 246 240 244 249 250 242 235 236 237 238 239 240 239 233 231 231 230 230 231 230 229 228 227 226 224 224 224 225 227 229 230 232 235 236 238 239
164 172 180 224 278 283 299 306 311 330 328 316 317 322 316 310 299 296 281 233 258 265 269 287 295 293 290 286 285 281 280 279 283 276 260 237 234 243 250 259 259 262 263 251 247 252 259 258 265 251 245 240 236 251 250 246 237 235 236 238 238 240 241 235 232 230 230 230 231 230 229 228 226 226 225 224 224 225 227 227 230 231 233 234 234
160 157 172 195 217 253 271 283 297 264 270 309 298 278 274 291 290 278 302 313 268 254 269 283 288 290 292 298 288 290 288 282 287 291 297 261 241 233 239 251 247 256 255 270 275 267 266 271 266 259 255 249 233 238 244 245 242 238 237 238 242 244 243 242 238 232 230 229 230 230 231 229 228 227 227 227 225 224 225 226 228 230 232 233 233
159 165 186 206 213 216 233 263 244 232 215 230 240 258 248 233 258 329 307 319 308 322 291 243 320 308 264 274 306 291 280 293 312 318 300 284 253 233 229 230 242 253 250 192 242 252 254 254 252 257 260 264 264 255 248 249 252 252 252 244 239 249 250 249 246 240 233 230 229 229 230 230 229 228 226 226 226 226 225 225 225 227 230 232 233
183 182 186 185 213 218 207 240 230 201 217 269 274 280 296 241 158 3 350 323 296 291 309 47 17 356 335 336 333 323 309 349 335 301 313 313 301 278 246 228 247 252 248 226 241 241 242 243 246 251 255 256 258 261 268 260 252 257 253 252 246 240 243 250 255 252 250 239 230 230 228 229 228 227 227 226 226 226 226 226 226 226 226 229 232
196 186 187 196 205 202 222 207 153 133 5 337 356 344 329 8 159 162 322 329 269 285 312 162 216 269 280 322 350 352 335 353 337 342 328 319 322 351 350 337 324 296 233 236 251 253 250 242 242 243 246 251 252 258 262 258 245 234 244 248 245 243 242 243 244 251 253 259 254 235 228 227 228 228 226 226 226 227 228 227 227 227 227 228 229
193 186 195 196 191 199 195 160 205 190 167 240 316 289 328 355 109 128 114 23 7 313 6 311 144 51 3 39 313 15 334 313 326 308 296 313 343 27 27 21 360 347 3 286 283 281 267 241 242 241 245 247 250 255 253 250 251 251 248 251 249 244 246 241 239 240 244 246 245 250 241 228 226 226 227 226 227 227 227 227 227 229 228 229 229
185 187 185 196 177 174 170 194 188 178 149 170 202 225 240 206 160 136 161 155 290 290 317 53 28 213 154 11 356 5 266 272 333 289 318 355 0 13 8 358 354 347 340 314 302 289 278 270 258 261 260 258 258 258 260 260 263 264 259 255 251 246 248 249 243 237 236 242 248 248 246 239 228 225 225 226 227 227 228 227 227 228 230 230 230
168 167 186 165 181 189 185 176 183 181 179 185 204 216 288 164 199 162 189 203 192 256 288 321 22 329 206 200 170 191 276 327 359 309 305 286 174 39 355 339 341 333 322 312 314 313 300 278 266 260 261 263 265 262 257 260 260 258 252 250 251 252 244 247 247 247 245 242 248 246 240 239 237 231 226 226 226 225 226 228 227 228 229 231 229
187 184 178 172 182 190 177 176 190 178 185 146 173 220 237 223 215 160 190 183 146 182 240 265 346 21 164 216 246 251 253 297 292 302 324 319 342 27 328 349 326 316 311 302 308 318 312 304 294 277 263 265 265 262 256 255 257 256 254 254 255 253 251 247 244 245 247 246 242 244 246 237 233 236 233 228 227 226 224 224 228 228 227 229 230
170 197 189 202 174 156 165 169 181 171 192 194 203 218 234 291 218 201 166 177 179 186 228 224 135 273 239 271 236 236 238 241 232 270 295 305 308 311 217 336 315 296 279 300 318 311 307 312 307 303 292 270 256 261 261 257 255 258 260 260 259 257 254 250 247 246 248 250 251 247 246 246 234 229 234 235 228 228 225 224 225 228 228 226 226
196 185 153 187 171 164 156 169 167 176 203 205 222 171 185 179 194 185 195 204 194 193 146 201 202 222 172 316 344 1 7 304 335 201 249 312 287 311 323 322 302 256 271 304 296 302 305 301 299 305 306 304 291 264 265 265 264 260 259 260 257 256 256 254 253 255 255 251 252 251 250 250 247 234 229 236 236 230 226 226 223 224 227 227 227
192 66 81 119 142 144 156 178 174 188 193 192 182 144 173 193 207 200 168 190 222 188 194 210 199 212 188 178 175 219 224 175 195 156 254 211 269 305 310 325 329 309 332 312 328 319 309 305 310 309 309 308 308 300 280 276 269 270 266 264 263 259 260 261 260 259 255 253 251 249 251 250 250 251 243 236 237 236 231 225 224 223 224 226 227
139 57 123 130 135 152 166 184 185 195 174 153 183 196 207 184 204 172 170 178 196 203 244 241 222 218 213 185 185 182 198 188 200 195 219 247 257 275 290 285 266 301 298 330 326 314 304 304 309 309 308 310 311 310 305 292 288 281 279 277 273 270 267 264 263 261 259 256 254 250 251 249 245 245 247 248 238 236 235 234 227 224 226 225 225
88 110 153 158 154 161 168 169 195 183 198 193 196 208 205 172 169 173 205 219 192 188 212 260 262 248 251 221 213 191 201 199 206 184 196 221 216 263 284 305 296 247 288 316 304 293 316 310 298 303 306 311 312 315 321 321 310 308 305 294 289 286 279 274 268 262 258 257 256 253 248 249 249 245 238 245 248 243 239 237 236 231 228 228 228
163 151 196 193 168 147 173 192 232 236 222 185 220 209 192 190 190 202 201 204 212 199 194 224 204 207 236 231 225 207 221 222 187 193 213 228 229 261 266 263 281 304 293 334 306 319 296 291 301 306 310 310 315 333 330 327 321 318 317 310 303 295 290 284 278 270 263 258 255 254 254 250 248 249 249 247 247 251 243 241 241 239 236 233 230
179 188 201 204 197 203 193 209 220 242 230 215 221 220 207 209 217 232 238 233 195 199 207 218 205 229 213 218 227 222 235 213 210 193 213 215 239 239 283 279 256 284 297 323 309 355 317 309 305 304 307 310 323 334 330 316 313 314 316 314 307 302 296 288 281 276 271 264 258 255 254 254 252 244 243 247 246 241 248 244 243 242 238 234 236
182 206 201 198 209 206 212 216 234 244 248 232 228 230 232 230 233 230 242 230 215 205 223 201 220 231 222 215 224 230 241 224 196 215 195 209 207 213 218 299 313 293 297 290 299 251 254 292 278 306 298 315 338 329 316 308 308 313 316 313 306 303 300 295 287 281 276 271 264 259 256 254 251 247 240 240 243 242 247 254 246 240 239 237 232
207 195 213 197 204 204 216 222 230 233 229 224 226 223 226 222 240 235 249 232 217 221 239 224 243 238 229 232 226 247 241 226 209 213 203 199 211 195 194 230 254 291 312 302 322 289 273 291 300 272 292 337 325 320 311 311 304 307 314 305 302 300 298 295 293 288 281 275 269 263 258 254 251 247 244 240 237 237 231 240 247 242 238 237 235
204 202 208 208 204 197 204 221 232 231 227 226 224 227 225 222 224 224 239 246 213 221 227 223 240 239 234 222 215 236 250 232 220 214 207 194 200 190 185 198 191 236 296 294 283 289 298 2 325 291 305 329 316 311 310 301 300 307 305 303 297 296 296 295 291 287 282 277 271 266 260 255 251 248 245 243 242 239 233 233 240 244 240 237 236
196 203 201 203 207 208 202 219 227 225 226 229 219 224 216 225 226 224 229 223 219 234 220 212 232 222 230 240 224 233 249 230 227 211 185 192 190 191 192 203 186 198 217 254 283 227 278 292 225 281 310 309 307 303 303 300 299 305 297 297 297 295 296 295 292 287 281 277 272 266 261 256 252 249 246 243 242 242 241 238 237 238 239 239 238
198 198 199 206 208 212 207 222 226 227 226 230 223 221 206 219 228 230 235 217 222 237 239 208 228 205 229 244 236 239 249 248 241 222 201 185 197 191 192 167 195 197 202 214 267 267 196 280 278 275 292 301 302 298 298 296 298 302 301 297 295 292 298 298 295 290 284 278 272 267 261 257 252 248 246 242 240 240 241 240 239 238 238 238 238
200 199 201 205 204 205 213 219 231 233 234 236 219 215 192 212 221 226 234 209 219 230 246 228 225 215 220 229 232 227 238 233 242 222 209 207 195 194 189 184 195 194 189 199 225 263 244 262 280 291 293 298 302 300 296 297 297 303 298 295 293 297 298 291 289 288 282 277 272 268 264 259 254 249 246 242 240 239 239 239 239 239 238 238 238
198 196 201 208 206 206 209 216 221 229 230 241 234 210 199 219 230 230 242 212 218 237 237 257 238 221 224 234 246 246 226 231 236 227 217 217 211 211 205 197 208 201 190 204 233 264 278 235 265 283 293 302 300 294 300 301 304 303 296 294 294 295 293 289 290 287 284 279 274 268 265 261 258 253 249 245 241 239 238 237 236 236 236 238 238
201 204 207 211 207 205 208 221 224 227 226 234 236 213 215 223 242 230 236 232 228 240 234 247 251 233 225 235 255 259 238 229 240 235 224 224 218 222 227 213 225 228 203 195 231 246 279 290 284 292 294 289 287 291 297 306 305 305 303 301 297 292 292 292 289 289 285 280 275 271 264 261 258 255 251 247 243 240 238 236 235 234 234 235 236
215 207 212 212 209 204 212 227 230 230 228 227 230 217 223 222 235 244 235 227 224 233 234 240 244 242 240 240 251 257 259 250 243 237 228 232 227 226 236 223 233 240 217 204 208 251 268 279 280 295 296 301 287 293 296 293 296 296 298 300 301 300 295 293 291 288 285 280 277 272 266 261 258 255 252 248 245 240 238 236 234 233 233 232 233
213 222 217 217 211 208 217 233 235 234 232 230 230 221 221 221 224 237 241 231 228 228 229 237 243 234 237 250 257 253 253 255 258 249 233 226 231 236 243 242 233 244 239 210 213 230 259 283 289 286 290 295 293 292 290 291 294 297 294 294 293 291 294 295 292 290 287 283 278 273 267 261 257 254 251 248 245 241 238 235 233 232 231 231 231
222 218 229 221 222 219 223 230 234 232 230 225 226 229 228 222 221 228 234 233 233 231 233 240 242 235 238 237 256 258 252 258 266 262 250 233 232 229 238 244 239 244 248 233 233 218 239 258 278 284 286 281 281 286 288 296 299 295 294 294 295 295 293 290 291 288 288 286 281 275 268 262 256 252 249 247 243 241 237 234 233 231 230 230 230
221 220 224 225 217 222 223 226 225 227 226 219 218 222 224 224 224 228 232 231 235 236 240 242 243 238 235 241 249 251 252 245 254 256 255 249 238 231 239 247 244 246 249 252 246 241 239 251 267 288 293 291 297 289 291 295 298 302 302 297 295 290 291 296 293 292 292 291 294 287 276 266 255 251 248 244 242 240 238 234 232 230 229 228 228
210 220 223 217 219 209 219 209 210 211 211 210 211 218 224 224 223 227 232 233 235 237 240 240 244 240 236 240 247 246 246 243 245 246 249 253 242 242 238 245 248 242 248 251 250 251 249 262 271 275 285 286 279 287 295 298 289 284 292 303 305 301 292 288 296 295 289 287 281 277 273 270 265 256 241 238 238 236 235 233 231 230 228 227 227
209 210 207 204 215 200 212 204 208 199 201 208 215 219 220 219 221 227 228 228 232 236 243 245 242 241 237 238 241 245 243 246 241 248 233 242 240 254 251 244 246 239 244 252 255 252 259 265 276 284 283 288 293 278 280 294 301 295 277 299 305 309 309 302 286 292 294 289 288 287 276 268 264 258 253 245 238 234 231 231 230 229 228 227 226
209 210 203 198 198 210 214 210 214 213 209 218 217 215 216 225 218 226 225 226 227 234 242 247 244 241 242 238 241 243 243 247 245 244 240 227 227 247 257 228 237 234 250 254 254 257 260 269 278 273 278 283 280 289 301 304 299 297 305 304 294 296 301 303 297 275 271 284 283 278 277 272 269 261 251 245 241 235 233 227 229 227 226 224 223
207 208 205 202 196 195 199 217 227 226 225 227 223 217 211 209 211 219 222 226 227 230 239 248 252 239 237 235 241 245 251 255 254 250 248 247 245 238 251 238 235 238 242 248 251 252 262 271 275 279 279 277 282 284 286 286 289 294 296 299 301 302 302 296 291 281 269 265 282 284 279 271 265 266 253 250 247 230 233 218 219 218 221 220 220
207 207 200 201 202 197 199 208 222 227 228 229 231 228 225 224 217 214 219 230 229 232 235 238 247 250 241 231 238 255 260 263 258 249 246 250 257 255 248 242 236 227 239 249 252 253 258 265 274 271 267 273 277 280 281 286 291 290 290 297 297 300 303 308 308 307 237 230 279 295 290 286 277 267 259 251 247 237 226 227 218 217 220 216 215
212 206 204 204 199 197 202 213 224 230 235 239 237 237 235 234 228 221 220 228 231 231 233 235 240 245 251 251 244 237 247 245 247 256 258 261 263 266 264 257 248 238 231 232 249 261 262 269 267 265 269 266 275 282 284 289 287 290 289 293 291 294 296 294 293 292 299 304 288 286 282 280 275 272 268 256 248 242 232 226 222 219 216 218 216
202 206 208 200 207 204 205 218 231 235 239 244 241 240 239 238 235 226 228 226 231 237 237 237 238 239 242 249 264 260 253 256 256 252 254 270 274 268 268 271 267 257 249 244 243 241 254 259 262 272 262 265 271 272 270 274 280 286 293 291 289 285 281 285 283 288 288 298 294 280 279 277 270 269 267 256 249 243 240 230 225 219 216 215 216
204 208 200 208 210 207 211 220 234 238 239 249 245 245 243 238 237 227 226 227 230 236 241 239 234 234 231 233 248 267 266 266 263 262 261 258 268 279 275 262 261 264 251 247 249 243 239 246 257 265 266 239 253 265 275 279 280 280 286 288 289 288 284 279 283 282 282 280 271 278 274 270 256 260 263 264 246 243 238 234 225 220 218 216 215
196 200 201 207 210 211 217 221 230 239 240 243 248 249 247 241 241 229 223 221 227 237 242 237 231 228 229 224 231 248 263 267 261 256 262 262 264 270 269 267 261 260 261 262 256 254 249 238 241 248 258 259 257 262 268 272 267 267 271 279 283 281 281 281 278 271 271 260 249 249 265 270 257 254 258 260 254 243 237 237 230 223 218 217 217
201 199 209 203 207 213 220 223 227 245 250 242 245 249 245 244 238 219 210 210 222 235 242 235 229 227 222 221 229 247 254 259 265 267 266 273 269 263 257 267 276 276 271 255 262 258 253 251 245 247 253 261 266 272 274 276 283 285 286 283 283 282 286 288 286 287 275 264 227 233 253 262 250 248 257 254 253 249 238 234 228 223 221 219 219
199 201 205 202 204 208 219 215 209 228 241 242 237 245 250 248 231 216 209 216 227 234 241 238 229 224 218 215 221 245 255 256 264 272 293 273 243 242 255 271 276 286 283 288 266 259 257 256 259 264 269 274 276 274 273 273 268 269 278 285 283 285 289 289 288 288 284 278 242 215 239 256 247 239 255 249 244 248 243 233 229 222 220 221 220
205 210 205 209 213 212 206 209 212 223 243 256 252 245 243 246 227 215 207 211 227 231 249 245 227 229 230 234 237 237 249 257 273 299 294 226 221 228 252 276 291 290 286 289 287 275 269 270 269 265 264 265 265 268 271 270 269 268 275 281 281 288 282 285 291 292 291 278 261 218 235 241 251 231 246 255 255 243 241 238 230 224 216 220 219
213 198 204 213 221 211 207 213 230 237 249 265 260 249 240 238 222 218 209 205 223 229 231 245 228 229 244 247 254 257 258 272 288 283 225 211 226 216 228 267 281 278 273 288 294 303 308 308 298 291 278 266 271 278 279 278 283 288 279 273 282 281 284 288 289 292 289 278 253 210 228 243 237 237 225 248 244 242 225 228 226 222 214 206 215